Regional Weather Roundup
Issued by NWS Portland, ME

Current Version | Previous Version | Text Only | Print | Product List | Glossary Off
Versions: 1 2 3 4 5 6 7 8 9 10 11 12 13 14 15 16 17 18 19 20 21 22 23 24 25 26 27 28 29 30 31 32 33 34 35 36 37 38 39 40 41 42 43 44 45 46 47 48 49 50

000
ASUS41 KGYX 280710
RWRGYX
WEATHER ROUNDUP FOR MAINE AND NEW HAMPSHIRE
NATIONAL WEATHER SERVICE GRAY ME
300 AM EDT FRI AUG 28 2015

MEZ002-005-006-010-012-015-018-020-021-024-026-027-029-280800-
MAINE

CITY           SKY/WX    TMP DP  RH WIND       PRES   REMARKS
PORTLAND       CLEAR     58  54  86 W5        30.06S
SANFORD        CLEAR     52  48  87 CALM      30.07S
BAR HARBOR     CLEAR     55  55 100 CALM      30.02S
WISCASSET      CLEAR     54  53  97 CALM      30.06S
ROCKLAND       CLEAR     57  55  94 NW6       30.02S
FRYEBURG       CLEAR     50  50 100 CALM      30.07S
LEWISTONAUBURN CLEAR     54 N/A N/A NW5       30.06R
AUGUSTA        CLEAR     59  54  83 NW5       30.05S
WATERVILLE     CLEAR     57  52  82 NW3       30.02S
BANGOR         PTCLDY    58  55  90 W6        30.03S
GREENVILLE       N/A     57  54  89 VRB3      30.03S
MILLINOCKET    CLEAR     61  57  87 VRB5      30.02S
HOULTON        CLEAR     54  52  93 CALM      29.98R
PRESQUE ISLE   CLEAR     52  46  82 S6        29.98R
FRENCHVILLE    CLEAR     54  50  86 W12       29.98R
CARIBOU        CLEAR     55  51  86 W5        29.97R
$$

NHZ002-005-008-009-011-012-014-280800-
NEW HAMPSHIRE

CITY           SKY/WX    TMP DP  RH WIND       PRES   REMARKS
PORTSMOUTH     CLEAR     59  54  84 W5        30.06R
ROCHESTER      CLEAR     55  52  89 NW8       30.07R
NASHUA         CLEAR     58  54  86 W6        30.09S
MANCHESTER     CLEAR     60  53  77 N3        30.07S
CONCORD        CLEAR     52  50  93 CALM      30.10S
LACONIA        CLEAR     57  54  88 W3        30.09R
BERLIN         PTCLDY    49  47  93 CALM      30.11S
WHITEFIELD     CLOUDY    56  53  90 CALM      30.12S
JAFFREY        CLEAR     52  50  93 CALM      30.12S
KEENE          CLOUDY    54  48  82 CALM      30.13R VSB 1/4
LEBANON        FOG       53  51  93 S6        30.12R VSB 1/2
MT WASHINGTON  FOG       41  41 100 W21         N/A  VSB 0
$$

VTZ005-007-008-280800-
VERMONT

CITY           SKY/WX    TMP DP  RH WIND       PRES   REMARKS
ST JOHNSBURY     N/A     54  53  97 MISG      30.11R
MONTPELIER     CLEAR     51  50  96 CALM      30.16S
BURLINGTON     CLOUDY    60  56  86 CALM      30.13R
$$

MAZ007-012-024-CTZ003-RIZ002-NYZ038-NYZ072-280800-
SOUTHERN NEW ENGLAND AND NY

CITY           SKY/WX    TMP DP  RH WIND       PRES   REMARKS
BOSTON         CLEAR     66  54  65 W8        30.08S
WORCESTER      CLEAR     59  54  83 W9        30.12S
NANTUCKET      PTCLDY    69  58  67 N7        30.07R
PROVIDENCE     CLEAR     62  56  80 W3        30.09S
HARTFORD       CLEAR     56  53  90 NW3       30.11S
ALBANY         PTCLDY    58  52  80 CALM      30.14R
NEW YORK CITY  PTCLDY    68  55  63 NW3       30.12S
$$

ANZ081-ANZ082-ANZ150-NHZ014-MEZ023>029-280800-
COASTAL MARINE OBSERVATIONS

STATION/POSITION TIME  TEMP    WIND        PRES    WAVE
                       AIR SEA DIR/SP/G            HT/PER
                 (UTC) (F)     (DEG/KT/KT) (MB)    (FT/S)
MOUNT DESERT ROC 0700   62     290/ 11/ 12 1016.6F
MATINICUS ROCK   0600   63     310/ 12/ 12 1016.8F
ISLE OF SHOALS   0600   64     310/ 12/ 13 1017.3F
JEFFREYS LEDGE   0603      68                N/A     3/10
CASHES LEDGE BUO 0650   67                 1017.1R   3/10
GEORGES BANK BUO 0550   68 70  300/ 10/ 12 1016.6    5/11
$$

.............KEY..............
   WCI - WIND CHILL
   TC  - TEMPERATURE IN CELSIUS
   VSB - VISIBILITY IN MILES
   HX  - HEAT INDEX
   FAIR- INDICATES FEW OR NO CLOUDS BELOW 12,000 FT, WITH NO
         SIGNIFICANT WEATHER AND/OR OBSTRUCTIONS TO VISIBILITY.




USA.gov is the U.S. government's official web portal to all federal, state and local government web resources and services.